Regional Weather Roundup
Issued by NWS

Home | Current Version | Previous Version | Graphics & Text | Print | Product List | Glossary On
Versions: 1 2 3 4 5 6 7 8 9 10 11 12 13 14 15 16 17 18 19 20 21 22 23 24 25 26 27 28 29 30 31 32 33 34 35 36 37 38 39 40 41 42 43 44 45 46 47 48 49 50
000
ASUS43 KIND 250509
RWRIN

WEATHER ROUNDUP FOR INDIANA
NATIONAL WEATHER SERVICE INDIANAPOLIS IN
1200 AM EST SAT NOV 25 2017

NOTE: "FAIR" INDICATES FEW OR NO CLOUDS BELOW 12,000 FEET WITH NO
SIGNIFICANT WEATHER AND/OR OBSTRUCTIONS TO VISIBILITY.

* - STATION DOES NOT REPORT WEATHER SUCH AS PRECIPITATION OR FOG.

+ - STATION NOT QUALITY CONTROLLED BY THE NATIONAL WEATHER SERVICE.
    USE DATA WITH CAUTION...ESPECIALLY DEWPOINT AND RELATIVE
    HUMIDITY OBSERVATIONS.

INZ001>003-010>013-019-020-250600-
NORTHWEST INDIANA

CITY           SKY/WX    TMP DP  RH WIND       PRES   REMARKS
GARY /AIRPORT/ CLOUDY    51  36  56 SW6       29.58R
KNOX *+        PTCLDY    50  36  57 SW13G20   29.57S
LA PORTE +     PTCLDY    48  36  64 SW10      29.57S
MICHIGAN CITY+ CLOUDY    50  36  57 SW12      29.56S
MONTICELLO +   CLOUDY    50  34  53 SW16      29.61S
RENSSELAER +   CLOUDY    50  30  46 SW16G26   29.60S
VALPARAISO     PTCLDY    51  38  60 SW13      29.57S

$$

LMZ046-743>745-250600-
SOUTHERN LAKE MICHIGAN

STATION/POSITION TIME  TEMP    WIND        PRES    WAVE
                       AIR SEA DIR/SP/G            HT
                 (UTC) (F)     (DEG/KT/KT) (MB)    (FT)
BURNS HARBOR     0440   52     190/ 15/ 22 1001.0S
MICHIGAN CITY    0440   53     200/ 21/ 25   N/A

$$

INZ004-005-014>016-021>024-250600-
NORTH CENTRAL INDIANA

CITY           SKY/WX    TMP DP  RH WIND       PRES   REMARKS
GOSHEN         CLOUDY    49  33  54 SW15      29.57S
LOGANSPORT +   CLOUDY    50  34  53 SW16      29.63R
PERU/GRISSOM   CLOUDY    49  35  59 SW16      29.62R
ROCHESTER +    MOCLDY    52  34  50 SW13G18   29.60F
SOUTH BEND     PTCLDY    49  36  61 SW17      29.57S
WARSAW +       MOCLDY    50  34  53 SW9       29.59S

$$

INZ006>009-017-018-025>027-250600-
NORTHEAST INDIANA

CITY           SKY/WX    TMP DP  RH WIND       PRES   REMARKS
AUBURN +       CLEAR     50  32  50 SW10G17   29.60S
FORT WAYNE     MOCLDY    48  33  56 SW17      29.61S
HUNTINGTON +   PTCLDY    47  31  52 SW12G17   29.62R

$$

INZ028-029-035-036-043>045-051>053-250600-
WEST CENTRAL INDIANA

CITY           SKY/WX    TMP DP  RH WIND       PRES   REMARKS
CRAWFORDSVL +  PTCLDY    48  35  60 SW16G24   29.64R
GREENCASTLE +  CLOUDY    50  32  50 SW10G18   29.69S
LAFAYETTE      MOCLDY    51  36  56 SW13      29.63R
TERRE HAUTE    PTCLDY    52  33  48 SW12      29.70R

$$

INZ030>032-037>040-046>048-054>057-064-065-250600-
CENTRAL INDIANA

CITY           SKY/WX    TMP DP  RH WIND       PRES   REMARKS
CP ATTERBURY + CLOUDY    52  30  43 SW12G17   29.72S
FISHERS *+     CLOUDY    50  36  57 SW12G17   29.67
FRANKFORT +    PTCLDY    52  37  55 SW15G21   29.66R
GREENWOOD *+   CLOUDY    53  32  45 SW9       29.70F
INDIANAPOLIS   CLOUDY    52  32  46 SW17G23   29.68F
-EAGLE CREEK   MOCLDY    54  31  41 SW8G23    29.66F
KOKOMO +       PTCLDY    50  34  54 SW20G26   29.64R
MARION +       MOCLDY    45  32  60 SW13      29.64R
MT COMFORT *+  PTCLDY    45  34  65 S10       29.68F
SHELBYVILLE    MOCLDY    47  29  49 S12       29.70F
ZIONSVILLE +   CLOUDY    50  33  50 SW18G24   29.66S

$$

INZ033-034-041-042-049-050-058-059-250600-
EAST CENTRAL INDIANA

CITY           SKY/WX    TMP DP  RH WIND       PRES   REMARKS
MUNCIE         PTCLDY    52  28  39 SW17G25   29.64F
RICHMOND +     CLOUDY    46  30  53 SW18G25   29.71S

$$

INZ060-061-067>069-081>083-085>088-250600-
SOUTHWEST INDIANA

CITY           SKY/WX    TMP DP  RH WIND       PRES   REMARKS
EVANSVILLE     CLOUDY    52  34  50 SW14      29.79S
HUNTINGBURG +  MOCLDY    51  31  46 S13       29.79S
WASHINGTON +   MOCLDY    52  30  43 S15G23    29.74S

$$

INZ062-063-066-070>080-084-089>092-250600-
SOUTH CENTRAL AND SOUTHEAST INDIANA

CITY           SKY/WX    TMP DP  RH WIND       PRES   REMARKS
BEDFORD +      PTCLDY    54  27  35 S15G21    29.74S
BLOOMINGTON    CLOUDY    53  30  41 SW17G26   29.72S
MADISON *+     CLOUDY    50  25  37 S9        29.79R
NORTH VERNON + CLOUDY    48  27  43 S12       29.75R
SEYMOUR +      CLOUDY    52  30  43 S9        29.75F

$$





USA.gov is the U.S. government's official web portal to all federal, state and local government web resources and services.